Location: Bad Dürkheim
(49.4618°N, 8.1724°E)
Time: 16:20:55
(UTC+00:00)

ALOS 2 - Pass Details

Date: 14 June 2025
Orbit: 630 x 632 km, 97.9° (Epoch: 20 July)

Event Time Altitude Azimuth Distance (km) Brightness Sun altitude
Exits shadow 23:12:56 31° 200° (SSW) 1,116 3.4 -17.2°
Maximum altitude 23:14:45 52° 260° (W) 794 3.0 -17.2°
Drops below altitude 10° 23:19:04 10° 337° (NNW) 2,027 6.3 -17.2°
Sets 23:21:20 0° 343° (NNW) 2,940 7.5 -17.2°
